Home > Weather > Klosterneuburg > Past weeks

Flag for Austria Past Weather in Klosterneuburg, Lower Austria, Austria — Yesterday and Last 2 Weeks

Now
72 °F

Passing clouds.


Feels Like: 76 °F
Forecast: 52 / 77 °F
Wind: 2 mph from North

Location: Wien / Hohe Warte

Current Time: Aug 24, 2016 at 8:24:12 PM

Latest Report: Aug 24, 2016 at 8:00 PM


Visibility: 25 mi

Pressure: 30.22 "Hg

Humidity: 59%

Dew Point: 57 °F

Location of KlosterneuburgLocation

Past Weather in Klosterneuburg — Graph

°F

Klosterneuburg Temperature Yesterday

Maximum temperature yesterday: 79 °F (at 4:00 PM)
Minimum temperature yesterday: 61 °F (at 5:00 AM)
Average temperature yesterday: 70 °F

High & Low Weather Summary for the Past Weeks

 TemperatureHumidityPressure
High85 °F (Aug 14, 4:00 PM)96% (Aug 14, 6:00 AM)30.35 "Hg (Aug 14, 6:00 AM)
Low51 °F (Aug 12, 6:00 AM)40% (Aug 11, 4:00 PM)29.78 "Hg (Aug 18, 5:00 PM)
Average66 °F71%30.10 "Hg
* Reported Aug 9 7:00 PM — Aug 24 7:00 PM, Klosterneuburg, Weather by CustomWeather, © 2016

Note: Actual official high and low records may vary slightly from our data, if they occured in-between our weather recording intervals... More about our weather records

Advertising

Klosterneuburg Weather History for the Previous 24 Hours

Scroll right to see more
 ConditionsComfort  
Time TempWeatherWind HumidityBarometerVisibility
7:00 PM
Wed, Aug 24
75 °FPassing clouds.3 mph53%30.22 "Hg25 mi
6:00 PM77 °FPassing clouds.5 mph50%30.22 "Hg28 mi
5:00 PM78 °FScattered clouds.5 mph50%30.22 "Hg28 mi
4:00 PM80 °FScattered clouds.5 mph46%30.22 "Hg28 mi
3:00 PM78 °FScattered clouds.5 mph50%30.24 "Hg28 mi
2:00 PM78 °FScattered clouds.3 mph51%30.25 "Hg22 mi
1:00 PM76 °FScattered clouds.3 mph57%30.26 "Hg16 mi
12:00 PM75 °FMild.2 mph58%30.28 "HgN/A
11:00 AM74 °FPassing clouds.3 mph62%30.29 "Hg15 mi
10:00 AM72 °FPassing clouds.5 mph66%30.29 "Hg12 mi
9:00 AM71 °FPassing clouds.2 mph66%30.29 "Hg14 mi
8:00 AM67 °FPassing clouds.1 mph78%30.30 "Hg16 mi
7:00 AM62 °FPassing clouds.1 mph86%30.30 "Hg22 mi
6:00 AM62 °FPassing clouds.2 mph86%30.29 "Hg19 mi
5:00 AM62 °FCool.2 mph85%30.29 "HgN/A
4:00 AM64 °FMild.3 mph80%30.29 "HgN/A
3:00 AM65 °FMild.2 mph77%30.29 "HgN/A
2:00 AM66 °FClear.3 mph75%30.29 "Hg19 mi
1:00 AM68 °FMild.3 mph69%30.30 "HgN/A
12:00 AM70 °FMild.3 mph64%30.29 "HgN/A
11:00 PM
Tue, Aug 23
71 °FPassing clouds.5 mph62%30.28 "Hg25 mi
10:00 PM73 °FPassing clouds.5 mph58%30.27 "Hg25 mi
9:00 PM73 °FPassing clouds.5 mph57%30.27 "Hg25 mi
8:00 PM74 °FPassing clouds.3 mph54%30.26 "Hg31 mi
Weather by CustomWeather, © 2016

See weather overviewHow to use our weather pages